Location: Gombori
(14.9797°N, 2.9419°W)
Time: 17:35:47
(UTC+00:00)

H-2A R/B - Pass Details

Date: 29 July 2021
Orbit: 733 x 836 km, 98.2° (Epoch: 22 September)

Event Time Altitude Azimuth Distance (km) Brightness Sun altitude
Rises 19:19:23 0° 184° (S) 3,365 5.1 -9.2°
Reaches altitude 10° 19:21:54 10° 192° (SSW) 2,425 4.5 -9.7°
Maximum altitude 19:26:52 38° 259° (W) 1,218 3.6 -10.8°
Drops below altitude 10° 19:31:45 10° 327° (NNW) 2,379 5.5 -11.9°
Sets 19:34:13 0° 335° (NNW) 3,294 6.1 -12.5°
